Tracking 17267 objects as of 31-August-2015
HD Live streaming from Space Station

ARIANE 5 DEB (SYLDA)

Track ARIANE 5 DEB (SYLDA) now!
ARIANE 5 DEB (SYLDA) is classified as:


NORAD ID: 28914
Int'l Code: 2005-049D
Perigee: 651.9 km
Apogee: 36,041.6 km
Inclination: 4.7 °
Period: 644.6 minutes
Semi major axis: 24717 km
RCS: 22.4158 m2 (large)
Launch date: December 21, 2005
Source: France (FR)

Note: This is SATELLITE DEBRIS
Your satellite tracking list
Your tracking list is empty





NASA's NSSDC Master Catalog

Two Line Element Set (TLE):
1 28914U 05049D   15242.47979977  .00000031  00000-0  12817-2 0  9990
2 28914 004.6777 002.5863 7158764 268.5125 025.2290 02.23403243 79074

Source of the keplerian elements: AFSPC

N2YO: 311